SCP
1 1 1 1 1 0 0 0 0 0 0 0 0 0 0 0 0 0 0 0 0 0 0 0 0 0 0 0 0 0 0 0 0 1 1 1 1 1
1 1 1 1 1 1 0 0 0 0 1 0 0 0 0 0 0 0 0 0 0 0 0 0 0 0 0 0 0 0 0 0 0 0 0 0 1 1
1 1 1 1 1 1 1 0 0 1 1 1 0 0 0 0 0 0 0 0 0 0 0 0 0 0 0 0 0 0 0 0 0 0 0 0 0 0
0 0 0 1 1 1 1 1 1 0 1 1 0 0 0 0 0 0 0 0 0 0 0 0 0 0 0 0 0 0 0 0 0 0 0 0 0 0
0 0 0 0 1 1 1 1 1 1 1 1 0 0 0 0 0 0 0 0 0 0 0 0 0 0 0 0 0 0 0 0 0 0 0 0 0 0
0 0 0 0 0 1 1 1 1 1 1 1 1 0 0 0 0 0 0 0 0 0 0 0 0 0 0 0 0 0 0 0 0 0 0 0 0 0
0 0 0 0 0 0 0 1 1 1 1 1 1 0 0 0 0 0 0 0 0 0 0 0 0 0 0 0 0 0 0 0 0 0 0 0 0 0
0 0 0 0 0 0 0 0 1 1 1 1 1 1 0 0 0 0 0 0 0 0 0 0 0 0 0 0 0 0 0 0 0 0 0 0 0 0
0 0 0 0 0 0 0 0 0 0 0 1 1 1 0 0 0 0 0 0 0 0 0 0 0 0 0 0 0 0 0 0 0 0 0 0 0 0
0 0 0 0 0 0 0 0 0 0 0 0 0 1 0 0 0 0 0 0 0 0 0 0 0 0 0 0 0 0 0 0 0 0 0 0 0 0
0 0 0 0 0 0 0 1 1 1 0 0 0 0 0 0 0 0 0 0 0 0 0 0 0 0 0 0 0 0 0 0 0 0 0 0 0 0
0 0 0 0 0 0 0 1 1 1 1 0 0 0 0 0 0 0 0 0 0 0 0 0 0 0 0 0 0 0 0 0 0 0 0 0 0 0
1 1 0 0 0 0 0 0 0 1 1 0 0 0 0 0 0 0 0 0 0 0 0 0 0 0 0 0 0 0 0 0 0 0 0 0 0 0
1 0 0 0 0 0 0 0 0 0 0 0 0 0 0 0 0 0 0 0 0 0 0 0 0 0 0 0 0 0 0 0 0 0 0 0 0 0
0 0 0 0 0 0 0 0 0 0 0 0 0 0 0 0 0 0 0 0 0 0 0 0 0 0 0 0 0 0 0 0 0 0 0 0 0 0
0 0 0 0 0 0 0 0 0 0 0 0 0 0 0 0 0 0 0 0 0 0 0 0 0 0 0 0 0 0 0 0 0 0 0 0 0 0
0 0 0 0 0 0 0 0 0 0 0 0 0 0 0 0 0 0 0 0 0 0 0 0 0 0 0 0 0 0 0 0 0 0 0 0 0 0
0 0 0 0 0 0 0 0 0 0 0 0 0 0 0 0 0 0 0 0 0 0 0 0 0 0 0 0 0 0 0 0 0 0 0 0 0 0
0 0 0 0 0 0 0 0 0 0 0 0 0 0 0 0 0 0 0 0 0 0 0 0 0 0 0 0 0 0 0 0 0 0 0 0 0 0
0 0 0 0 0 0 0 0 0 0 0 0 0 0 0 0 0 0 0 0 0 0 0 0 0 0 0 0 0 0 0 0 0 0 0 0 0 0
0 0 0 0 0 0 0 0 0 0 0 0 0 0 0 0 0 0 0 0 0 0 0 0 0 0 0 0 0 0 0 0 0 0 0 0 0 0
0 0 0 0 0 0 0 0 0 0 0 0 0 0 0 0 0 0 0 0 0 0 0 0 0 0 0 0 0 0 0 0 0 0 0 0 0 0
0 0 0 0 0 0 0 0 0 0 0 0 0 0 0 0 0 0 0 0 0 0 0 0 0 0 0 0 0 0 0 0 0 0 0 0 0 0
Wind_Speed
8 10 8 7 7 7 7 6 6 5 5 7 6 7 5 4 5 5 4 8 4 4 5 7 9 10 10 11 11 11 11 10 10 11 12 13 12 12
4 7 8 6 7 7 8 8 7 7 5 4 5 7 7 5 6 5 4 6 4 4 4 6 7 8 9 9 10 10 9 9 8 9 11 12 13 14
4 5 7 7 6 7 7 8 8 7 6 4 5 7 10 8 7 6 5 5 6 5 4 4 5 6 7 8 8 8 8 8 7 7 10 12 13 13
4 6 8 6 9 8 7 9 8 9 8 7 6 6 10 9 9 7 5 4 3 8 4 3 3 5 5 6 6 6 7 7 7 9 10 11 12 13
7 8 10 10 10 9 10 10 8 8 7 6 6 5 5 7 8 7 7 5 5 7 6 5 4 4 4 4 5 5 6 7 9 10 11 11 11 12
11 11 12 12 12 11 10 11 9 9 8 7 7 7 6 6 8 8 7 7 6 6 5 3 5 4 4 4 4 5 5 7 8 9 10 10 10 11
12 12 12 11 11 9 7 9 10 8 8 8 8 8 8 7 9 8 7 7 7 6 6 6 7 7 8 8 6 5 5 6 7 8 9 10 10 11
11 12 11 11 13 13 13 11 9 10 10 10 9 10 12 11 8 8 8 7 6 7 7 6 5 5 5 5 9 6 5 6 7 7 8 9 9 10
10 10 8 8 10 10 13 15 13 13 12 11 11 13 11 11 11 11 10 9 6 7 7 6 6 6 5 6 10 7 6 6 6 6 7 7 7 7
9 10 9 9 9 9 9 10 11 12 13 13 11 9 6 7 10 10 9 8 5 6 7 6 6 6 5 7 13 9 8 7 6 6 6 6 6 5
8 7 8 8 7 7 8 7 7 7 8 10 5 1 4 7 8 6 7 8 7 7 8 6 5 6 5 6 10 12 8 8 7 8 7 6 6 6
5 5 5 5 5 8 8 6 6 5 5 6 7 6 7 9 12 10 8 8 7 7 9 7 6 6 5 6 7 10 9 10 9 8 8 8 8 8
4 4 4 5 4 5 6 3 1 2 3 4 5 6 6 6 9 9 8 7 7 5 7 9 6 7 5 5 6 7 8 9 10 10 10 11 11 10
3 3 4 6 5 5 3 2 2 2 3 3 4 4 4 5 5 7 7 7 6 4 7 9 5 6 7 6 6 7 8 7 8 9 9 13 12 11
2 6 6 7 7 6 4 4 4 3 3 3 4 4 4 5 5 4 5 6 6 4 5 9 6 6 6 6 5 7 7 8 8 8 8 9 9 9
5 8 8 6 4 4 6 6 4 3 3 3 2 2 3 4 4 4 4 4 4 5 6 8 8 7 6 7 5 7 7 7 8 8 8 8 8 8
7 6 6 6 6 5 4 4 4 4 4 3 3 3 3 4 4 5 5 5 6 5 6 5 6 6 7 6 7 7 7 7 7 8 8 8 8 9
4 4 4 4 4 4 4 5 5 4 4 4 4 4 4 4 4 4 5 6 7 7 7 7 6 5 5 7 8 9 8 8 7 8 8 8 8 9
3 2 2 1 2 2 2 3 3 3 3 3 4 4 4 4 5 5 6 6 7 7 6 6 7 8 10 11 11 12 9 7 7 8 8 8 8 7
1 0 1 1 2 3 3 3 3 3 4 4 4 4 5 5 5 5 6 7 7 7 6 6 8 10 11 8 4 5 10 7 7 8 7 7 6 3
1 1 2 2 2 3 3 3 4 4 4 4 5 5 5 5 6 6 6 7 7 7 8 8 9 10 3 2 2 3 4 8 6 4 5 6 6 6
1 2 2 3 3 3 4 4 4 4 5 5 5 5 5 5 6 7 6 6 6 6 7 3 5 6 6 7 6 5 4 4 4 4 5 4 3 3
1 1 2 2 3 3 4 4 5 5 5 5 5 5 5 5 5 5 5 5 5 4 3 3 3 3 4 4 4 3 4 4 3 4 5 6 6 4
Wind_Direction
224 224 221 221 226 237 243 241 240 237 217 193 178 191 189 183 149 216 153 103 73 71 69 59 51 42 37 35 35 33 30 32 39 48 51 53 54 56
232 237 230 229 226 225 230 237 241 244 242 185 174 173 181 182 179 221 111 132 119 92 85 71 58 48 40 36 33 28 24 25 38 58 63 62 60 60
231 246 245 235 226 221 222 228 235 238 236 210 161 173 178 190 171 204 180 200 141 124 104 83 65 55 48 42 36 29 27 30 39 59 74 72 69 66
234 257 257 243 235 230 223 226 228 233 227 211 168 197 194 190 183 191 197 205 181 128 126 101 79 68 62 51 42 38 43 48 52 63 73 77 78 75
217 237 251 244 235 230 226 230 229 228 228 213 173 174 198 196 191 195 203 197 201 154 167 166 124 96 87 69 54 51 59 67 69 68 68 69 74 76
216 226 237 240 241 238 231 232 226 220 218 214 181 173 179 195 196 196 198 194 205 190 181 179 148 147 135 118 91 75 73 79 81 78 72 66 66 74
222 227 233 237 248 253 248 238 222 216 213 213 203 188 183 179 199 197 201 191 198 195 197 192 193 194 168 162 148 115 98 93 90 88 82 76 72 73
233 233 232 228 234 235 243 250 242 225 218 217 215 213 206 199 188 187 193 190 197 186 212 202 203 209 199 170 126 134 130 114 102 99 95 90 85 83
246 242 232 227 222 225 221 223 231 240 247 244 232 231 225 197 184 188 197 200 208 157 194 197 188 210 189 130 140 171 166 144 128 118 111 102 97 99
243 242 236 226 214 217 215 216 221 219 224 236 247 251 240 191 187 196 201 208 203 154 194 213 185 202 183 167 159 183 188 177 165 155 143 128 116 115
241 237 234 225 193 207 219 221 230 230 221 230 267 27 135 168 184 194 187 187 197 190 194 223 188 191 187 190 165 178 192 189 188 188 181 170 159 175
229 224 218 240 184 200 223 221 228 224 211 206 206 179 183 185 187 202 193 205 210 191 185 204 184 184 198 192 179 178 191 191 196 204 200 192 197 226
216 212 183 172 184 198 245 239 213 181 190 208 198 190 193 192 194 216 216 220 226 210 171 190 187 196 213 167 183 190 193 185 190 200 206 202 211 247
222 191 144 150 169 186 212 110 111 160 169 175 178 181 187 189 193 207 222 216 235 242 170 185 191 200 204 193 178 180 194 200 201 202 200 188 205 229
107 86 116 146 162 175 164 160 180 196 186 190 196 194 191 191 185 191 210 221 228 218 190 199 202 205 218 217 189 168 182 197 206 211 212 202 203 202
144 127 128 139 160 133 159 183 197 189 204 207 202 191 178 180 179 173 181 187 202 206 209 210 218 213 221 224 205 186 186 181 189 206 213 218 223 221
159 164 167 169 175 179 186 191 193 186 199 204 201 194 196 197 190 180 181 182 197 200 197 204 217 217 234 231 217 205 192 188 177 188 203 216 221 224
186 182 181 189 194 193 192 191 199 205 208 208 212 210 210 215 212 193 194 202 211 216 203 186 184 191 213 236 242 227 208 199 190 184 199 216 226 219
222 184 177 198 221 232 238 239 224 210 213 220 229 232 230 227 223 214 209 216 225 226 212 182 184 196 206 217 210 215 224 205 195 194 208 219 236 240
255 190 188 210 227 237 232 233 240 233 233 235 235 239 240 237 233 231 226 226 231 230 216 191 195 206 215 218 202 191 222 223 198 205 206 216 234 249
204 241 254 255 252 253 252 250 246 244 244 246 246 245 247 245 241 238 236 237 239 238 230 217 211 200 194 150 174 174 189 226 255 240 219 209 223 229
224 241 251 261 264 265 264 264 263 257 253 252 256 254 252 250 253 251 244 239 236 238 243 219 166 171 185 200 200 179 164 171 213 256 295 288 250 254
284 292 298 290 284 280 275 268 267 270 267 264 265 260 254 250 249 251 249 244 239 227 203 168 155 168 186 195 185 162 161 168 173 184 220 223 237 266